Погода в Линьяно-Саббьядоро

Италия     45°41′03″N   13°07′29″E
темп.,
°C
ветер,
м/с
пор.,
м/с
влажн.,
%
обл.,
%
осадки,
мм/ч
давл.,
гПа
погр.,
м
12 мая, ср
ср1223:00+15ююв1593100 3.9 1009486
02:00+14ююв2494100 5.9 1007279
05:00+14ююв2394100 3.9 1006169
08:00+15ююз2289100 5.8 1007243
11:00+15ссз4486100 2.9 1008575
14:00+15ссв5681100 3.8 1008508
17:00+16с116993 0.2 1007677
20:00+15ююз1281100 0.7 100747
13 мая, чт
чт1323:00+14ююз1186100 0.4 100834
02:00+13св2392100 0.9 100687
05:00+13ссв3497100 3.5 1005245
08:00+12сз4695100 6.9 1005325
11:00+12зсз3494100 1.9 1006221
14:00+12юз1292100 3.2 1006177
17:00+15ююв2281100 0.3 1005500
20:00+14ююв228499 0.9 100651
14 мая, пт
пт1423:00+13вюв3694100 1.4 1006273
02:00+13всв358945 5.3 1006181
05:00+12в338555 0.1 100643
08:00+14в578438 0.3 1007510
11:00+17вюв566692 0.6 10081000
14:00+17ю667296 2.6 1008921
17:00+17ююв556944 1.4 1008953
20:00+15ююв2280100 2.6 100836
15 мая, сб
сб1523:00+14ююв1288100 3.0 100949
02:00+13в4689100 4.9 1009224
05:00+12ссв1296100 2.6 1008229
08:00+13вюв3593100 6.2 1009306
11:00+11ссв4792100 4.2 1010313
14:00+11св459095 7.2 1010252
17:00+16всв22717 0.0 1009824
20:00+14юв118130 0.0 100911
16 мая, вс
вс1623:00+12ю118897 0.0 100910
02:00+11св229199 0.0 101023
05:00+10ссв33935 0.0 101047
08:00+12ссв227833 0.0 1011172
11:00+17с11615 0.0 1012692
14:00+20ююз32565 0.0 10111341
17:00+19ююз43605 0.0 1010912
20:00+15ю33765 0.0 101053